Location: Houston
(29.7631°N, 95.3631°W)
Time: 21:55:07
(UTC-05:00)

OTV 5 (USA 277) - Visible Passes

Search period start: 16 October 2019 00:00
Search period end: 26 October 2019 00:00
Orbit: 310 x 324 km, 54.5° (Epoch: 08 October)

Date Brightness Start Highest point End Pass type
(mag) Time Alt. Az. Time Alt. Az. Time Alt. Az.
20 Oct ? 06:09:26 10° N 06:10:55 13° NE 06:12:23 10° ENE visible
21 Oct ? 06:23:36 15° NNW 06:25:36 41° NE 06:28:11 10° ESE visible
22 Oct ? 06:38:33 19° WNW 06:40:07 41° SW 06:42:41 10° SSE visible
23 Oct ? 06:53:36 10° WSW 06:54:28 11° WSW 06:55:27 10° SW visible
24 Oct ? 20:13:30 10° SSW 20:14:08 15° SSW 20:14:08 15° SSW visible
25 Oct ? 20:28:04 10° WSW 20:29:10 20° WSW 20:29:10 20° WSW visible
